WXM80 ListenWXM80 Stop

You find our weather info also at:

UK Metoffice

WeatherCloud

Weather Underground

Northeastern Weather Network

AWEKAS

Citizen Weather Observer Program (CWOP)

HAMweather, WeatherForYou, PWS Weather


Weather Underground History page Text

Daily Summary for February 14, 2016 Units:  English    Metric   Both
« Previous Day
Next Day »
Daily Weekly Monthly Yearly Custom
  High: Low: Average:
Temperature: 14.8 °F 0.8 °F 8.8 °F
Dew Point: 1.6 °F -9.6 °F -5.6 °F
Humidity: 68 % 39 % 52 %
Wind Speed: 14.5 mph 0.0 mph 4.9 mph
Wind Gust: 32.0 mph - -
Wind:- - WNW
Pressure: 30.54 in 30.27 in -
Precipitation: 0.00 in    
Historical Graphs
 
 
Tabular Data for February 14, 2016
Time Temperature Dew Point Pressure Wind Wind Speed Wind Gust Humidity Rainfall Rate (Hourly)
00:00 6.5 °F -7.0 °F 30.27 in NNW 8.2 mph 18.4 mph 53 % 0.00 in
00:10 6.5 °F -7.0 °F 30.27 in NW 8.4 mph 17.0 mph 53 % 0.00 in
00:16 6.3 °F -7.2 °F 30.27 in NW 10.5 mph 18.4 mph 53 % 0.00 in
00:21 6.3 °F -6.8 °F 30.27 in NW 10.0 mph 23.0 mph 54 % 0.00 in
00:26 6.3 °F -7.6 °F 30.28 in NW 10.3 mph 26.5 mph 52 % 0.00 in
00:31 6.2 °F -8.1 °F 30.27 in SSW 11.4 mph 19.6 mph 51 % 0.00 in
00:36 6.1 °F -8.2 °F 30.28 in NW 8.1 mph 13.8 mph 51 % 0.00 in
00:41 6.0 °F -7.5 °F 30.28 in West 11.3 mph 19.6 mph 53 % 0.00 in
00:46 6.0 °F -7.9 °F 30.28 in WNW 13.6 mph 19.6 mph 52 % 0.00 in
00:56 5.9 °F -6.8 °F 30.28 in WNW 8.3 mph 15.0 mph 55 % 0.00 in
01:01 6.0 °F -6.4 °F 30.28 in NW 6.4 mph 17.3 mph 56 % 0.00 in
01:07 6.0 °F -6.0 °F 30.29 in WNW 10.0 mph 12.7 mph 57 % 0.00 in
01:12 6.0 °F -5.6 °F 30.28 in NW 9.0 mph 15.0 mph 58 % 0.00 in
01:17 6.0 °F -5.6 °F 30.29 in West 8.8 mph 18.4 mph 58 % 0.00 in
01:22 6.0 °F -5.6 °F 30.29 in WNW 6.0 mph 12.0 mph 58 % 0.00 in
01:27 6.0 °F -4.9 °F 30.29 in NNW 8.0 mph 14.0 mph 60 % 0.00 in
01:32 6.0 °F -4.6 °F 30.29 in NNE 7.9 mph 23.0 mph 61 % 0.00 in
01:37 5.9 °F -3.7 °F 30.29 in NW 9.0 mph 11.5 mph 64 % 0.00 in
01:47 5.6 °F -3.3 °F 30.29 in North 8.1 mph 18.0 mph 66 % 0.00 in
01:52 5.5 °F -3.1 °F 30.30 in North 8.3 mph 12.7 mph 67 % 0.00 in
01:58 5.4 °F -3.8 °F 30.31 in WNW 7.8 mph 20.7 mph 65 % 0.00 in
02:03 5.3 °F -3.9 °F 30.31 in WNW 6.5 mph 13.0 mph 65 % 0.00 in
02:08 5.3 °F -3.6 °F 30.31 in WNW 8.3 mph 15.0 mph 66 % 0.00 in
02:13 5.2 °F -5.0 °F 30.31 in NW 11.2 mph 19.6 mph 62 % 0.00 in
02:18 5.1 °F -5.4 °F 30.31 in NW 13.8 mph 27.6 mph 61 % 0.00 in
02:23 5.0 °F -6.2 °F 30.31 in NW 13.7 mph 26.5 mph 59 % 0.00 in
02:28 5.0 °F -5.9 °F 30.31 in WNW 14.4 mph 32.0 mph 60 % 0.00 in
02:33 5.0 °F -6.2 °F 30.32 in NNW 8.1 mph 16.0 mph 59 % 0.00 in
02:54 4.9 °F -6.0 °F 30.32 in SW 12.5 mph 24.2 mph 60 % 0.00 in
03:04 4.8 °F -5.7 °F 30.32 in NW 14.3 mph 21.9 mph 61 % 0.00 in
03:09 4.9 °F -6.0 °F 30.33 in NW 6.9 mph 19.6 mph 60 % 0.00 in
03:14 4.7 °F -6.5 °F 30.33 in West 8.8 mph 16.1 mph 59 % 0.00 in
03:29 4.4 °F -6.8 °F 30.33 in NW 4.4 mph 17.3 mph 59 % 0.00 in
03:35 4.4 °F -7.1 °F 30.33 in WNW 13.5 mph 20.7 mph 58 % 0.00 in
03:40 4.1 °F -8.1 °F 30.33 in WNW 11.2 mph 21.9 mph 56 % 0.00 in
03:45 4.1 °F -7.8 °F 30.34 in NW 11.2 mph 18.0 mph 57 % 0.00 in
03:50 4.1 °F -6.7 °F 30.34 in North 6.0 mph 19.6 mph 60 % 0.00 in
03:55 4.1 °F -7.4 °F 30.34 in NW 10.9 mph 20.7 mph 58 % 0.00 in
04:00 4.0 °F -7.2 °F 30.34 in NW 10.1 mph 18.4 mph 59 % 0.00 in
04:05 4.0 °F -6.5 °F 30.35 in NW 8.2 mph 13.8 mph 61 % 0.00 in
04:10 4.0 °F -6.8 °F 30.35 in NW 9.1 mph 14.0 mph 60 % 0.00 in
04:15 3.8 °F -7.7 °F 30.35 in NW 7.7 mph 13.8 mph 58 % 0.00 in
04:20 3.6 °F -7.5 °F 30.36 in NNW 8.1 mph 18.4 mph 59 % 0.00 in
04:26 3.4 °F -8.4 °F 30.36 in WNW 11.7 mph 22.0 mph 57 % 0.00 in
04:31 3.2 °F -9.0 °F 30.36 in NNW 14.5 mph 23.0 mph 56 % 0.00 in
04:36 2.9 °F -9.6 °F 30.36 in WSW 9.5 mph 16.1 mph 55 % 0.00 in
04:41 2.9 °F -8.6 °F 30.36 in WNW 6.9 mph 13.8 mph 58 % 0.00 in
04:46 2.9 °F -8.2 °F 30.36 in NW 7.7 mph 15.0 mph 59 % 0.00 in
04:51 2.9 °F -8.2 °F 30.36 in NW 6.1 mph 10.4 mph 59 % 0.00 in
04:56 2.8 °F -8.7 °F 30.37 in NW 8.6 mph 12.7 mph 58 % 0.00 in
05:01 2.7 °F -8.7 °F 30.37 in WNW 7.4 mph 14.0 mph 58 % 0.00 in
05:06 2.6 °F -8.5 °F 30.37 in NNW 7.1 mph 11.5 mph 59 % 0.00 in
05:11 2.6 °F -8.1 °F 30.38 in North 7.6 mph 15.0 mph 60 % 0.00 in
05:17 2.5 °F -8.6 °F 30.38 in NNW 3.4 mph 12.7 mph 59 % 0.00 in
05:22 2.4 °F -8.3 °F 30.39 in WNW 6.9 mph 15.0 mph 60 % 0.00 in
05:27 2.2 °F -8.9 °F 30.39 in NW 6.5 mph 13.8 mph 59 % 0.00 in
05:32 2.2 °F -8.2 °F 30.39 in NW 7.3 mph 18.4 mph 61 % 0.00 in
05:37 2.1 °F -8.6 °F 30.39 in NW 5.6 mph 11.5 mph 60 % 0.00 in
05:42 2.0 °F -8.7 °F 30.39 in NW 7.5 mph 12.7 mph 60 % 0.00 in
05:47 1.9 °F -9.5 °F 30.40 in NNW 9.6 mph 17.3 mph 58 % 0.00 in
05:52 1.8 °F -9.2 °F 30.40 in NNW 7.0 mph 12.7 mph 59 % 0.00 in
05:57 1.7 °F -9.0 °F 30.40 in NW 6.5 mph 13.8 mph 60 % 0.00 in
06:02 1.7 °F -9.3 °F 30.40 in NW 9.7 mph 14.0 mph 59 % 0.00 in
06:08 1.6 °F -9.1 °F 30.41 in NW 6.4 mph 12.7 mph 60 % 0.00 in
06:13 1.5 °F -9.2 °F 30.41 in NW 4.7 mph 15.0 mph 60 % 0.00 in
06:18 1.5 °F -8.5 °F 30.41 in WSW 7.9 mph 16.1 mph 62 % 0.00 in
06:23 1.5 °F -7.9 °F 30.41 in NNW 2.8 mph 5.8 mph 64 % 0.00 in
06:28 1.4 °F -7.3 °F 30.41 in NNW 5.0 mph 9.2 mph 66 % 0.00 in
06:33 1.4 °F -7.6 °F 30.42 in WNW 2.4 mph 4.0 mph 65 % 0.00 in
06:38 1.3 °F -7.4 °F 30.42 in NW 5.4 mph 10.4 mph 66 % 0.00 in
06:43 1.1 °F -7.6 °F 30.43 in WNW 5.6 mph 6.9 mph 66 % 0.00 in
06:48 1.0 °F -7.4 °F 30.43 in NNW 5.4 mph 10.4 mph 67 % 0.00 in
06:53 0.9 °F -7.5 °F 30.43 in NW 4.0 mph 10.4 mph 67 % 0.00 in
06:59 0.9 °F -7.2 °F 30.44 in NNW 1.9 mph 7.0 mph 68 % 0.00 in
07:04 1.0 °F -7.4 °F 30.44 in WNW 5.3 mph 12.0 mph 67 % 0.00 in
07:09 0.9 °F -8.4 °F 30.44 in NNW 5.4 mph 10.4 mph 64 % 0.00 in
07:14 0.8 °F -8.2 °F 30.45 in North 6.3 mph 9.2 mph 65 % 0.00 in
07:19 0.8 °F -7.9 °F 30.46 in WNW 5.3 mph 10.0 mph 66 % 0.00 in
07:24 0.8 °F -8.2 °F 30.46 in WNW 4.9 mph 6.9 mph 65 % 0.00 in
07:29 0.8 °F -7.9 °F 30.46 in North 5.9 mph 9.2 mph 66 % 0.00 in
07:34 0.9 °F -7.5 °F 30.47 in NNW 5.9 mph 8.1 mph 67 % 0.00 in
07:39 0.9 °F -7.8 °F 30.47 in North 5.3 mph 5.3 mph 66 % 0.00 in
07:44 0.9 °F -7.5 °F 30.47 in WNW 2.8 mph 5.0 mph 67 % 0.00 in
07:50 0.9 °F -7.8 °F 30.47 in WNW 5.3 mph 10.4 mph 66 % 0.00 in
07:55 0.9 °F -8.1 °F 30.47 in West 3.3 mph 8.1 mph 65 % 0.00 in
08:00 0.9 °F -8.8 °F 30.48 in NW 5.0 mph 10.4 mph 63 % 0.00 in
08:05 0.8 °F -8.9 °F 30.48 in WNW 5.4 mph 9.2 mph 63 % 0.00 in
08:10 0.9 °F -8.8 °F 30.49 in WNW 4.5 mph 10.4 mph 63 % 0.00 in
08:15 0.9 °F -8.4 °F 30.49 in WNW 6.4 mph 11.5 mph 64 % 0.00 in
08:20 1.0 °F -8.7 °F 30.49 in NNW 6.0 mph 11.5 mph 63 % 0.00 in
08:25 1.1 °F -8.9 °F 30.49 in West 6.2 mph 9.2 mph 62 % 0.00 in
08:30 1.2 °F -8.2 °F 30.49 in North 5.9 mph 10.0 mph 64 % 0.00 in
08:35 1.4 °F -8.6 °F 30.49 in NNW 6.8 mph 11.5 mph 62 % 0.00 in
08:41 1.6 °F -8.4 °F 30.49 in NW 5.9 mph 11.5 mph 62 % 0.00 in
08:46 1.9 °F -7.8 °F 30.49 in NNW 6.9 mph 10.4 mph 63 % 0.00 in
08:51 2.2 °F -7.5 °F 30.49 in North 6.6 mph 11.5 mph 63 % 0.00 in
08:56 2.6 °F -7.5 °F 30.49 in NW 4.8 mph 16.1 mph 62 % 0.00 in
09:01 2.9 °F -7.9 °F 30.50 in NW 6.6 mph 10.4 mph 60 % 0.00 in
09:06 3.0 °F -8.1 °F 30.50 in NW 6.1 mph 10.4 mph 59 % 0.00 in
09:11 3.6 °F -7.2 °F 30.51 in WNW 5.2 mph 9.2 mph 60 % 0.00 in
09:16 3.7 °F -8.2 °F 30.50 in WNW 5.5 mph 13.8 mph 57 % 0.00 in
09:21 3.8 °F -8.1 °F 30.51 in WNW 7.2 mph 11.5 mph 57 % 0.00 in
09:26 3.8 °F -8.1 °F 30.51 in North 5.3 mph 6.9 mph 57 % 0.00 in
09:32 3.8 °F -8.4 °F 30.51 in NNW 3.5 mph 10.4 mph 56 % 0.00 in
09:37 3.9 °F -8.7 °F 30.51 in NW 5.8 mph 10.4 mph 55 % 0.00 in
09:42 4.0 °F -8.2 °F 30.51 in NW 5.6 mph 10.4 mph 56 % 0.00 in
09:47 4.1 °F -8.5 °F 30.51 in North 7.9 mph 13.0 mph 55 % 0.00 in
09:52 4.2 °F -8.4 °F 30.51 in NNW 5.6 mph 11.5 mph 55 % 0.00 in
09:57 4.7 °F -7.6 °F 30.51 in NNW 5.6 mph 8.1 mph 56 % 0.00 in
10:02 5.1 °F -7.6 °F 30.51 in North 6.4 mph 10.4 mph 55 % 0.00 in
10:07 5.3 °F -8.1 °F 30.51 in NW 6.8 mph 12.7 mph 53 % 0.00 in
10:12 5.6 °F -7.9 °F 30.51 in NW 5.7 mph 9.0 mph 53 % 0.00 in
10:17 6.0 °F -7.1 °F 30.51 in NW 5.0 mph 10.4 mph 54 % 0.00 in
10:23 6.1 °F -7.8 °F 30.51 in West 4.5 mph 10.4 mph 52 % 0.00 in
10:28 6.1 °F -7.4 °F 30.51 in WNW 4.7 mph 11.5 mph 53 % 0.00 in
10:33 6.3 °F -7.6 °F 30.52 in WNW 7.9 mph 13.8 mph 52 % 0.00 in
10:38 6.6 °F -6.9 °F 30.51 in NW 3.3 mph 8.0 mph 53 % 0.00 in
10:43 6.9 °F -6.7 °F 30.52 in NW 5.3 mph 9.2 mph 53 % 0.00 in
10:48 7.3 °F -7.1 °F 30.51 in NW 9.0 mph 11.5 mph 51 % 0.00 in
10:53 7.7 °F -5.9 °F 30.51 in WNW 2.8 mph 7.0 mph 53 % 0.00 in
10:58 8.0 °F -6.0 °F 30.51 in North 4.7 mph 9.2 mph 52 % 0.00 in
11:03 8.1 °F -6.3 °F 30.51 in WNW 9.4 mph 11.5 mph 51 % 0.00 in
11:08 8.4 °F -6.0 °F 30.50 in NNW 7.3 mph 11.0 mph 51 % 0.00 in
11:14 8.8 °F -4.9 °F 30.50 in North 5.4 mph 5.4 mph 53 % 0.00 in
11:24 9.1 °F -5.8 °F 30.49 in North 6.9 mph 10.4 mph 50 % 0.00 in
11:29 9.4 °F -5.1 °F 30.49 in West 7.4 mph 11.5 mph 51 % 0.00 in
11:34 9.7 °F -5.2 °F 30.49 in NW 3.8 mph 8.1 mph 50 % 0.00 in
11:39 10.0 °F -4.6 °F 30.49 in NNW 4.3 mph 5.8 mph 51 % 0.00 in
11:44 9.8 °F -6.0 °F 30.49 in NW 3.3 mph 9.2 mph 48 % 0.00 in
11:54 10.0 °F -5.8 °F 30.49 in NW 6.5 mph 12.7 mph 48 % 0.00 in
11:59 9.9 °F -5.1 °F 30.49 in NNW 7.0 mph 10.4 mph 50 % 0.00 in
12:05 9.9 °F -5.1 °F 30.49 in NW 4.1 mph 10.4 mph 50 % 0.00 in
12:10 10.0 °F -5.0 °F 30.49 in NW 4.0 mph 5.8 mph 50 % 0.00 in
12:15 10.1 °F -5.3 °F 30.49 in NW 5.3 mph 8.1 mph 49 % 0.00 in
12:20 10.3 °F -4.7 °F 30.48 in NNW 3.1 mph 7.0 mph 50 % 0.00 in
12:25 10.4 °F -5.0 °F 30.48 in NW 4.2 mph 7.0 mph 49 % 0.00 in
12:30 10.4 °F -5.0 °F 30.48 in WNW 6.5 mph 11.0 mph 49 % 0.00 in
12:35 11.1 °F -5.2 °F 30.48 in NW 4.1 mph 6.9 mph 47 % 0.00 in
12:40 11.1 °F -4.4 °F 30.48 in North 2.1 mph 4.0 mph 49 % 0.00 in
12:45 11.4 °F -4.5 °F 30.48 in North 2.7 mph 11.5 mph 48 % 0.00 in
12:50 11.6 °F -4.8 °F 30.48 in NW 6.5 mph 9.2 mph 47 % 0.00 in
12:56 11.5 °F -5.8 °F 30.48 in NNE 3.3 mph 4.6 mph 45 % 0.00 in
13:01 11.8 °F -4.2 °F 30.48 in NNW 4.7 mph 6.9 mph 48 % 0.00 in
13:06 12.2 °F -4.7 °F 30.48 in NNW 6.9 mph 11.5 mph 46 % 0.00 in
13:16 13.0 °F -3.9 °F 30.48 in NNE 3.8 mph 10.0 mph 46 % 0.00 in
13:21 13.4 °F -4.0 °F 30.48 in NW 5.9 mph 10.4 mph 45 % 0.00 in
13:26 13.7 °F -4.2 °F 30.47 in NNW 4.8 mph 10.4 mph 44 % 0.00 in
13:40 14.2 °F -4.2 °F 30.47 in NNW 6.7 mph 12.0 mph 43 % 0.00 in
13:45 14.1 °F -4.3 °F 30.47 in NNW 7.1 mph 10.4 mph 43 % 0.00 in
13:50 13.9 °F -4.0 °F 30.47 in WNW 1.9 mph 4.6 mph 44 % 0.00 in
13:55 14.0 °F -4.4 °F 30.47 in NW 2.6 mph 3.5 mph 43 % 0.00 in
14:00 14.0 °F -5.4 °F 30.47 in WNW 5.3 mph 13.0 mph 41 % 0.00 in
14:06 14.1 °F -4.3 °F 30.47 in WSW 5.5 mph 11.5 mph 43 % 0.00 in
14:11 14.3 °F -4.2 °F 30.46 in NNE 4.3 mph 6.0 mph 43 % 0.00 in
14:16 14.4 °F -4.1 °F 30.46 in NW 5.9 mph 9.2 mph 43 % 0.00 in
14:21 14.6 °F -3.9 °F 30.46 in WSW 3.9 mph 6.9 mph 43 % 0.00 in
14:26 14.8 °F -3.7 °F 30.46 in NW 3.2 mph 4.6 mph 43 % 0.00 in
14:31 14.7 °F -3.3 °F 30.46 in WSW 2.0 mph 3.5 mph 44 % 0.00 in
14:36 14.6 °F -4.9 °F 30.45 in NW 1.9 mph 8.1 mph 41 % 0.00 in
14:41 14.4 °F -5.1 °F 30.46 in NW 4.0 mph 5.8 mph 41 % 0.00 in
14:51 14.1 °F -5.3 °F 30.46 in West 6.9 mph 10.4 mph 41 % 0.00 in
14:57 13.7 °F -5.7 °F 30.46 in WNW 4.5 mph 5.8 mph 41 % 0.00 in
15:02 13.6 °F -4.8 °F 30.46 in NNW 2.4 mph 9.2 mph 43 % 0.00 in
15:12 13.4 °F -5.5 °F 30.45 in WNW 3.3 mph 6.9 mph 42 % 0.00 in
15:17 13.4 °F -5.0 °F 30.45 in West 5.4 mph 11.5 mph 43 % 0.00 in
15:22 13.5 °F -5.4 °F 30.46 in NW 2.8 mph 5.8 mph 42 % 0.00 in
15:27 13.5 °F -4.9 °F 30.45 in NNE 1.3 mph 3.5 mph 43 % 0.00 in
15:32 13.6 °F -5.3 °F 30.45 in NNW 3.8 mph 8.1 mph 42 % 0.00 in
15:37 13.7 °F -5.7 °F 30.46 in WNW 4.4 mph 8.0 mph 41 % 0.00 in
15:43 13.7 °F -5.7 °F 30.46 in West 4.2 mph 10.4 mph 41 % 0.00 in
15:48 13.7 °F -5.7 °F 30.46 in West 2.9 mph 8.1 mph 41 % 0.00 in
15:53 13.9 °F -5.5 °F 30.45 in WSW 6.5 mph 10.4 mph 41 % 0.00 in
15:58 13.9 °F -5.5 °F 30.45 in NNE 1.5 mph 3.5 mph 41 % 0.00 in
16:03 14.0 °F -5.4 °F 30.46 in WNW 3.5 mph 7.0 mph 41 % 0.00 in
16:08 14.1 °F -5.3 °F 30.46 in WNW 2.8 mph 4.6 mph 41 % 0.00 in
16:13 14.1 °F -5.8 °F 30.46 in WNW 3.4 mph 6.9 mph 40 % 0.00 in
16:18 14.1 °F -5.8 °F 30.46 in West 3.8 mph 5.8 mph 40 % 0.00 in
16:23 14.1 °F -5.3 °F 30.46 in NW 2.8 mph 5.8 mph 41 % 0.00 in
16:28 14.2 °F -5.2 °F 30.46 in NNW 2.5 mph 4.6 mph 41 % 0.00 in
16:34 14.2 °F -4.7 °F 30.46 in NW 1.7 mph 4.6 mph 42 % 0.00 in
16:39 14.2 °F -5.2 °F 30.47 in WNW 1.8 mph 6.9 mph 41 % 0.00 in
16:44 14.2 °F -4.7 °F 30.47 in WSW 4.8 mph 9.2 mph 42 % 0.00 in
16:49 14.2 °F -5.2 °F 30.47 in NW 3.3 mph 8.1 mph 41 % 0.00 in
16:54 14.3 °F -5.1 °F 30.47 in WSW 1.8 mph 4.0 mph 41 % 0.00 in
16:59 14.2 °F -5.2 °F 30.48 in WNW 0.5 mph 1.2 mph 41 % 0.00 in
17:09 14.2 °F -6.3 °F 30.48 in WNW 1.8 mph 4.6 mph 39 % 0.00 in
17:14 14.2 °F -5.2 °F 30.48 in West 2.1 mph 3.5 mph 41 % 0.00 in
17:19 14.2 °F -4.7 °F 30.48 in WSW 2.3 mph 6.9 mph 42 % 0.00 in
17:25 14.1 °F -4.3 °F 30.48 in WSW 3.0 mph 9.2 mph 43 % 0.00 in
17:30 14.2 °F -4.7 °F 30.48 in West 1.4 mph 4.6 mph 42 % 0.00 in
17:35 14.1 °F -4.3 °F 30.49 in SW 4.5 mph 8.1 mph 43 % 0.00 in
17:40 14.1 °F -5.8 °F 30.49 in WNW 1.6 mph 5.0 mph 40 % 0.00 in
17:45 14.1 °F -5.8 °F 30.49 in West 3.3 mph 5.0 mph 40 % 0.00 in
17:50 14.1 °F -5.8 °F 30.49 in NNW 2.1 mph 6.0 mph 40 % 0.00 in
17:55 14.1 °F -5.8 °F 30.49 in NNW 2.8 mph 4.6 mph 40 % 0.00 in
18:00 14.1 °F -4.8 °F 30.49 in NW 1.0 mph 3.5 mph 42 % 0.00 in
18:05 14.1 °F -4.8 °F 30.49 in WNW 2.9 mph 4.0 mph 42 % 0.00 in
18:10 14.1 °F -4.8 °F 30.49 in NE 0.7 mph 2.3 mph 42 % 0.00 in
18:16 14.0 °F -4.9 °F 30.49 in NW 2.2 mph 4.6 mph 42 % 0.00 in
18:21 14.0 °F -4.9 °F 30.50 in West 2.1 mph 4.0 mph 42 % 0.00 in
18:26 14.0 °F -4.9 °F 30.50 in WSW 3.1 mph 4.6 mph 42 % 0.00 in
18:31 14.0 °F -4.9 °F 30.50 in West 3.5 mph 5.8 mph 42 % 0.00 in
18:36 14.0 °F -4.9 °F 30.50 in West 2.0 mph 4.0 mph 42 % 0.00 in
18:41 14.1 °F -4.8 °F 30.51 in WNW 4.1 mph 6.9 mph 42 % 0.00 in
18:46 14.1 °F -4.8 °F 30.51 in West 3.7 mph 7.0 mph 42 % 0.00 in
18:51 14.1 °F -4.8 °F 30.51 in WSW 2.0 mph 4.0 mph 42 % 0.00 in
19:01 14.1 °F -5.3 °F 30.51 in WNW 1.2 mph 3.5 mph 41 % 0.00 in
19:07 14.1 °F -4.8 °F 30.51 in WNW 2.5 mph 4.6 mph 42 % 0.00 in
19:12 14.1 °F -4.3 °F 30.51 in WNW 1.9 mph 3.5 mph 43 % 0.00 in
19:17 14.2 °F -3.8 °F 30.52 in West 0.8 mph 3.5 mph 44 % 0.00 in
19:22 14.2 °F -3.8 °F 30.51 in West 2.4 mph 5.0 mph 44 % 0.00 in
19:27 14.1 °F -3.9 °F 30.52 in NW 2.9 mph 6.9 mph 44 % 0.00 in
19:32 14.2 °F -3.8 °F 30.51 in West 4.6 mph 6.9 mph 44 % 0.00 in
19:37 14.2 °F -3.8 °F 30.51 in WNW 4.7 mph 9.2 mph 44 % 0.00 in
19:42 14.2 °F -3.8 °F 30.51 in West 1.8 mph 5.8 mph 44 % 0.00 in
19:47 14.3 °F -3.7 °F 30.52 in NW 4.4 mph 9.2 mph 44 % 0.00 in
19:58 14.4 °F -3.6 °F 30.51 in NNW 1.9 mph 4.6 mph 44 % 0.00 in
20:03 14.4 °F -3.1 °F 30.52 in West 1.5 mph 5.8 mph 45 % 0.00 in
20:08 14.4 °F -3.1 °F 30.52 in West 2.0 mph 9.2 mph 45 % 0.00 in
20:13 14.5 °F -3.0 °F 30.52 in WNW 2.6 mph 5.8 mph 45 % 0.00 in
20:18 14.5 °F -3.0 °F 30.52 in NW 2.6 mph 5.8 mph 45 % 0.00 in
20:23 14.4 °F -3.1 °F 30.52 in West 2.4 mph 4.0 mph 45 % 0.00 in
20:28 14.4 °F -3.6 °F 30.52 in WNW 2.3 mph 5.8 mph 44 % 0.00 in
20:33 14.4 °F -3.6 °F 30.51 in WNW 5.4 mph 10.4 mph 44 % 0.00 in
20:38 14.4 °F -3.1 °F 30.52 in West 1.5 mph 3.5 mph 45 % 0.00 in
20:43 14.4 °F -3.6 °F 30.52 in WSW 1.5 mph 4.0 mph 44 % 0.00 in
20:49 14.3 °F -4.2 °F 30.52 in WNW 5.4 mph 6.9 mph 43 % 0.00 in
20:54 14.3 °F -3.7 °F 30.53 in WSW 3.3 mph 6.9 mph 44 % 0.00 in
20:59 14.2 °F -3.8 °F 30.52 in North 1.3 mph 4.6 mph 44 % 0.00 in
21:04 14.2 °F -3.8 °F 30.53 in SW 2.3 mph 6.0 mph 44 % 0.00 in
21:09 14.1 °F -3.9 °F 30.52 in WNW 1.9 mph 5.8 mph 44 % 0.00 in
21:14 14.1 °F -3.9 °F 30.52 in WNW 0.7 mph 2.3 mph 44 % 0.00 in
21:19 14.0 °F -3.9 °F 30.52 in WNW 1.1 mph 6.0 mph 44 % 0.00 in
21:24 14.0 °F -4.4 °F 30.52 in West 1.6 mph 3.5 mph 43 % 0.00 in
21:29 14.0 °F -3.9 °F 30.53 in WSW 1.4 mph 3.5 mph 44 % 0.00 in
21:40 14.0 °F -4.4 °F 30.53 in West 2.1 mph 3.0 mph 43 % 0.00 in
21:45 14.0 °F -3.9 °F 30.54 in West 0.8 mph 3.5 mph 44 % 0.00 in
21:50 14.0 °F -3.9 °F 30.54 in WSW 2.2 mph 3.5 mph 44 % 0.00 in
21:55 14.0 °F -3.5 °F 30.54 in West 1.0 mph 2.3 mph 45 % 0.00 in
22:00 14.0 °F -3.5 °F 30.53 in West 0.7 mph 2.0 mph 45 % 0.00 in
22:05 14.0 °F -3.5 °F 30.53 in WNW 1.2 mph 3.0 mph 45 % 0.00 in
22:10 13.9 °F -3.1 °F 30.53 in WSW 1.5 mph 3.0 mph 46 % 0.00 in
22:15 13.9 °F -1.8 °F 30.54 in WSW 1.4 mph 2.3 mph 49 % 0.00 in
22:20 13.6 °F -1.6 °F 30.53 in WSW 0.1 mph 2.3 mph 50 % 0.00 in
22:31 13.2 °F -1.6 °F 30.53 in WSW 0.1 mph 1.2 mph 51 % 0.00 in
22:36 13.1 °F -1.3 °F 30.53 in Calm     52 % 0.00 in
22:41 12.8 °F -0.7 °F 30.53 in Calm   1.2 mph 54 % 0.00 in
22:46 12.6 °F -0.5 °F 30.53 in Calm     55 % 0.00 in
22:51 12.3 °F -0.4 °F 30.53 in Calm   2.3 mph 56 % 0.00 in
22:56 12.1 °F -0.2 °F 30.53 in WSW 0.2 mph 1.2 mph 57 % 0.00 in
23:01 12.0 °F 0.0 °F 30.53 in SW 1.0 mph 2.3 mph 58 % 0.00 in
23:06 11.9 °F -0.4 °F 30.53 in SW 0.7 mph 3.5 mph 57 % 0.00 in
23:11 11.8 °F -0.5 °F 30.53 in SW 1.1 mph 1.2 mph 57 % 0.00 in
23:16 11.7 °F -0.6 °F 30.54 in SW 0.9 mph 1.2 mph 57 % 0.00 in
23:22 11.6 °F -0.3 °F 30.54 in SW 0.5 mph 2.3 mph 58 % 0.00 in
23:27 11.6 °F -0.3 °F 30.54 in West 1.4 mph 4.6 mph 58 % 0.00 in
23:32 11.7 °F -1.0 °F 30.54 in WNW 0.6 mph 2.3 mph 56 % 0.00 in
23:37 11.9 °F -0.8 °F 30.54 in WNW 0.3 mph 1.2 mph 56 % 0.00 in
23:47 12.3 °F 0.7 °F 30.54 in Calm     59 % 0.00 in
23:52 12.4 °F 0.4 °F 30.54 in West 0.3 mph 1.2 mph 58 % 0.00 in
23:57 12.5 °F 1.6 °F 30.54 in West 1.2 mph 3.0 mph 61 % 0.00 in
Crab Meadow Weather
Compliments of Weather Underground - 2.75 mb

Script developed by  Jim McMurry - jmcmurry@mwt.net Adapted for the template by  Wim van der Kuil - Leuven-Template.eu

Recycling: If every American home replaced just one light bulb with an ENERGY STAR qualified bulb, we would save enough energy to light more than 3 million homes for a year, more than $600 million in annual energy costs, and prevent greenhouse gases equivalent to the emissions of more than 800,000 cars.